星链-34865 (STARLINK-34865)

导读

STARLINK-34828是美国于2025年8月28日发射的星链卫星,归属SpaceX星链项目。星链项目旨在搭建全球卫星互联网星座,为全球多地提供高速低延迟网络服务,该卫星加入星座后,进一步扩充了星链卫星互联网的覆盖范围与服务能力。

Basic Information
目录编号:
65353
目录名称:
STARLINK-34828
国际标识:
2025-190C
轨道中心:
EARTH
卫星名称:
星链-34865
卫星全名:
星链-34865 (STARLINK-34865)
卫星状态:
在轨 (已飞行381 天)
发射日期:
2025-08-28 UTC
国别 :
美国 (US)
星等 :
--
This satellite is enrolled in the Space Conjunction Data Service (SCDS) and the current flight risk assessment level is: High Risk
Orbit Information
数据来源 国际轨道数据
星历时间: 2026-09-11T23:51:23+0800
1天前
查看轨道信息
半长轴: 6840.831km
偏心率: 0.0001285
轨道倾角: 53.161°
近地点辐角 90.556°
升交点赤经 23.266°
平近点角 269.559°
近地点: 461.814km
远地点: 463.574km
周期: 93.848分钟
每日圈数: 15.344033
Detailed Information
固有亮度:
5
最大亮度:
2.5
卫星平台:
Starlink V1.0
覆盖范围:
全球
运营商:
太空探索技术公司
运营商所在国:
美国
制造商(研发单位):
太空探索技术公司
制造商所在国:
美国
使用方式:
暂无
Satellite Introduction
Starlink 计划是 SpaceX 推出的全球卫星互联网项目,通过发射低轨道卫星,为全球尤其是偏远地区提供高速、低延迟的互联网服务。自 2019 年起,Starlink 已部署数千颗卫星,旨在缩小全球数字鸿沟,推动互联网普及。该项目还为军事、航空等行业提供通信支持,带来广泛经济效益。
2D Orbit Map
3D Orbit Map
Orbit Altitude Analysis Chart
Orbit Inclination Analysis Chart
Orbit Comprehensive Analysis Chart
View Comprehensive Chart
Conjunction Data List
Event ID Objects TCA Miss Dist (km) Collision Risk Probability Collision Risk Index (CRI) Action
CDM_260915-053006-044006-535321
2026-09-15T
05:30:12+0000
0.131 km
中距离
8.196638E-4 高风险 0.93
CDM_260914-205406-044006-535321
2026-09-14T
20:54:20+0000
0.820 km
远距离
2.403056E-5 中风险 0.63
CDM_260914-192006-044006-535321
2026-09-14T
19:20:33+0000
1.441 km
极远距离
3.570381E-6 低风险 0.46
CDM_260915-035606-044006-535321
2026-09-15T
03:56:24+0000
2.197 km
极远距离
1.154457E-6 低风险 0.36
CDM_260914-222806-044006-535321
2026-09-14T
22:28:08+0000
2.885 km
极远距离
7.456589E-7 极低风险 0.32
CDM_260915-043705-258806-535321
2026-09-15T
04:37:44+0000
2.721 km
极远距离
5.809699E-7 极低风险 0.3
Miss Distance Evolution Trend with All Objects
Collision Probability Evolution Trend with All Objects